Year,Month,Day,Hour,Minute,Value (Times are PST for temperature in C)
2006,09,23,00,00,8.30
2006,09,23,00,01,8.30
2006,09,23,00,02,8.30
2006,09,23,00,03,8.30
2006,09,23,00,04,8.30
2006,09,23,00,05,8.30
2006,09,23,00,06,8.30
2006,09,23,00,07,8.30
2006,09,23,00,08,8.30
2006,09,23,00,09,8.30
2006,09,23,00,10,8.30
2006,09,23,00,11,8.20
2006,09,23,00,12,8.30
2006,09,23,00,13,8.30
2006,09,23,00,14,8.30
2006,09,23,00,15,8.30
2006,09,23,00,16,8.30
2006,09,23,00,17,8.30
2006,09,23,00,18,8.30
2006,09,23,00,19,8.30
2006,09,23,00,20,8.30
2006,09,23,00,21,8.30
2006,09,23,00,22,8.30
2006,09,23,00,23,8.20
2006,09,23,00,24,8.30
2006,09,23,00,25,8.30
2006,09,23,00,26,8.30
2006,09,23,00,27,8.30
2006,09,23,00,28,8.30
2006,09,23,00,29,8.30
2006,09,23,00,30,8.30
2006,09,23,00,31,8.30
2006,09,23,00,32,8.30
2006,09,23,00,33,8.30
2006,09,23,00,34,8.20
2006,09,23,00,35,8.20
2006,09,23,00,36,8.20
2006,09,23,00,37,8.20
2006,09,23,00,38,8.20
2006,09,23,00,39,8.20
2006,09,23,00,40,8.20
2006,09,23,00,41,8.20
2006,09,23,00,42,8.20
2006,09,23,00,43,8.20
2006,09,23,00,44,8.20
2006,09,23,00,45,8.20
2006,09,23,00,46,8.10
2006,09,23,00,47,8.10
2006,09,23,00,48,8.10
2006,09,23,00,49,8.10
2006,09,23,00,50,8.10
2006,09,23,00,51,8.10
2006,09,23,00,52,8.10
2006,09,23,00,53,8.10
2006,09,23,00,54,8.10
2006,09,23,00,55,8.10
2006,09,23,00,56,8.10
2006,09,23,00,57,8.00
2006,09,23,00,58,8.00
2006,09,23,00,59,8.00
2006,09,23,01,00,8.00
2006,09,23,01,01,8.00
2006,09,23,01,02,8.00
2006,09,23,01,03,8.00
2006,09,23,01,04,8.00
2006,09,23,01,05,8.00
2006,09,23,01,06,8.00
2006,09,23,01,07,8.00
2006,09,23,01,08,8.00
2006,09,23,01,09,8.00
2006,09,23,01,10,8.00
2006,09,23,01,11,7.90
2006,09,23,01,12,7.90
2006,09,23,01,13,7.90
2006,09,23,01,14,7.90
2006,09,23,01,15,7.90
2006,09,23,01,16,7.90
2006,09,23,01,17,7.90
2006,09,23,01,18,7.90
2006,09,23,01,19,7.90
2006,09,23,01,20,7.90
2006,09,23,01,21,7.90
2006,09,23,01,22,7.90
2006,09,23,01,23,7.80
2006,09,23,01,24,7.80
2006,09,23,01,25,7.80
2006,09,23,01,26,7.80
2006,09,23,01,27,7.80
2006,09,23,01,28,7.80
2006,09,23,01,29,7.80
2006,09,23,01,30,7.80
2006,09,23,01,31,7.80
2006,09,23,01,32,7.80
2006,09,23,01,33,7.80
2006,09,23,01,34,7.80
2006,09,23,01,35,7.70
2006,09,23,01,36,7.70
2006,09,23,01,37,7.70
2006,09,23,01,38,7.70
2006,09,23,01,39,7.70
2006,09,23,01,40,7.70
2006,09,23,01,41,7.70
2006,09,23,01,42,7.70
2006,09,23,01,43,7.70
2006,09,23,01,44,7.70
2006,09,23,01,45,7.70
2006,09,23,01,46,7.70
2006,09,23,01,47,7.70
2006,09,23,01,48,7.70
2006,09,23,01,49,7.70
2006,09,23,01,50,7.60
2006,09,23,01,51,7.60
2006,09,23,01,52,7.60
2006,09,23,01,53,7.60
2006,09,23,01,54,7.60
2006,09,23,01,55,7.60
2006,09,23,01,56,7.60
2006,09,23,01,57,7.60
2006,09,23,01,58,7.60
2006,09,23,01,59,7.60
2006,09,23,02,00,7.60
2006,09,23,02,01,7.60
2006,09,23,02,02,7.60
2006,09,23,02,03,7.60
2006,09,23,02,04,7.60
2006,09,23,02,05,7.60
2006,09,23,02,06,7.60
2006,09,23,02,07,7.60
2006,09,23,02,08,7.60
2006,09,23,02,09,7.60
2006,09,23,02,10,7.60
2006,09,23,02,11,7.60
2006,09,23,02,12,7.60
2006,09,23,02,13,7.50
2006,09,23,02,14,7.50
2006,09,23,02,15,7.40
2006,09,23,02,16,7.40
2006,09,23,02,17,7.40
2006,09,23,02,18,7.40
2006,09,23,02,19,7.40
2006,09,23,02,20,7.40
2006,09,23,02,21,7.40
2006,09,23,02,22,7.30
2006,09,23,02,23,7.30
2006,09,23,02,24,7.30
2006,09,23,02,25,7.30
2006,09,23,02,26,7.30
2006,09,23,02,27,7.20
2006,09,23,02,28,7.20
2006,09,23,02,29,7.20
2006,09,23,02,30,7.20
2006,09,23,02,31,7.20
2006,09,23,02,32,7.20
2006,09,23,02,33,7.30
2006,09,23,02,34,7.20
2006,09,23,02,35,7.20
2006,09,23,02,36,7.20
2006,09,23,02,37,7.20
2006,09,23,02,38,7.20
2006,09,23,02,39,7.20
2006,09,23,02,40,7.20
2006,09,23,02,41,7.20
2006,09,23,02,42,7.20
2006,09,23,02,43,7.20
2006,09,23,02,44,7.30
2006,09,23,02,45,7.30
2006,09,23,02,46,7.30
2006,09,23,02,47,7.30
2006,09,23,02,48,7.30
2006,09,23,02,49,7.40
2006,09,23,02,50,7.40
2006,09,23,02,51,7.40
2006,09,23,02,52,7.40
2006,09,23,02,53,7.40
2006,09,23,02,54,7.30
2006,09,23,02,55,7.30
2006,09,23,02,56,7.20
2006,09,23,02,57,7.20
2006,09,23,02,58,7.20
2006,09,23,02,59,7.20
2006,09,23,03,00,7.20
2006,09,23,03,01,7.20
2006,09,23,03,02,7.20
2006,09,23,03,03,7.20
2006,09,23,03,04,7.20
2006,09,23,03,05,7.20
2006,09,23,03,06,7.10
2006,09,23,03,07,7.10
2006,09,23,03,08,7.10
2006,09,23,03,09,7.10
2006,09,23,03,10,7.10
2006,09,23,03,11,7.10
2006,09,23,03,12,7.00
2006,09,23,03,13,7.00
2006,09,23,03,14,7.00
2006,09,23,03,15,7.00
2006,09,23,03,16,6.90
2006,09,23,03,17,6.90
2006,09,23,03,18,6.90
2006,09,23,03,19,6.90
2006,09,23,03,20,6.80
2006,09,23,03,21,6.80
2006,09,23,03,22,6.80
2006,09,23,03,23,6.80
2006,09,23,03,24,6.80
2006,09,23,03,25,6.80
2006,09,23,03,26,6.80
2006,09,23,03,27,6.90
2006,09,23,03,28,6.90
2006,09,23,03,29,6.90
2006,09,23,03,30,6.90
2006,09,23,03,31,6.90
2006,09,23,03,32,6.90
2006,09,23,03,33,6.90
2006,09,23,03,34,6.80
2006,09,23,03,35,6.80
2006,09,23,03,36,6.80
2006,09,23,03,37,6.80
2006,09,23,03,38,6.80
2006,09,23,03,39,6.70
2006,09,23,03,40,6.70
2006,09,23,03,41,6.70
2006,09,23,03,42,6.80
2006,09,23,03,43,6.80
2006,09,23,03,44,6.80
2006,09,23,03,45,6.80
2006,09,23,03,46,6.90
2006,09,23,03,47,6.90
2006,09,23,03,48,6.90
2006,09,23,03,49,6.90
2006,09,23,03,50,6.90
2006,09,23,03,51,6.90
2006,09,23,03,52,6.90
2006,09,23,03,53,6.90
2006,09,23,03,54,6.90
2006,09,23,03,55,6.90
2006,09,23,03,56,6.90
2006,09,23,03,57,6.90
2006,09,23,03,58,6.90
2006,09,23,03,59,6.90
2006,09,23,04,00,6.90
2006,09,23,04,01,6.90
2006,09,23,04,02,6.90
2006,09,23,04,03,6.90
2006,09,23,04,04,6.90
2006,09,23,04,05,6.90
2006,09,23,04,06,6.90
2006,09,23,04,07,6.90
2006,09,23,04,08,6.90
2006,09,23,04,09,6.90
2006,09,23,04,10,6.90
2006,09,23,04,11,6.90
2006,09,23,04,12,6.80
2006,09,23,04,13,6.80
2006,09,23,04,14,6.80
2006,09,23,04,15,6.80
2006,09,23,04,16,6.80
2006,09,23,04,17,6.80
2006,09,23,04,18,6.80
2006,09,23,04,19,6.80
2006,09,23,04,20,6.80
2006,09,23,04,21,6.80
2006,09,23,04,22,6.80
2006,09,23,04,23,6.80
2006,09,23,04,24,6.90
2006,09,23,04,25,6.90
2006,09,23,04,26,6.90
2006,09,23,04,27,6.90
2006,09,23,04,28,6.90
2006,09,23,04,29,6.90
2006,09,23,04,30,6.90
2006,09,23,04,31,6.90
2006,09,23,04,32,6.90
2006,09,23,04,33,6.90
2006,09,23,04,34,6.90
2006,09,23,04,35,6.90
2006,09,23,04,36,6.90
2006,09,23,04,37,7.00
2006,09,23,04,38,7.00
2006,09,23,04,39,7.00
2006,09,23,04,40,7.00
2006,09,23,04,41,7.00
2006,09,23,04,42,6.90
2006,09,23,04,43,6.90
2006,09,23,04,44,6.90
2006,09,23,04,45,6.90
2006,09,23,04,46,6.80
2006,09,23,04,47,6.80
2006,09,23,04,48,6.80
2006,09,23,04,49,6.80
2006,09,23,04,50,6.70
2006,09,23,04,51,6.70
2006,09,23,04,52,6.70
2006,09,23,04,53,6.70
2006,09,23,04,54,6.70
2006,09,23,04,55,6.70
2006,09,23,04,56,6.60
2006,09,23,04,57,6.60
2006,09,23,04,58,6.60
2006,09,23,04,59,6.60
2006,09,23,05,00,6.60
2006,09,23,05,01,6.60
2006,09,23,05,02,6.60
2006,09,23,05,03,6.60
2006,09,23,05,04,6.60
2006,09,23,05,05,6.60
2006,09,23,05,06,6.70
2006,09,23,05,07,6.70
2006,09,23,05,08,6.70
2006,09,23,05,09,6.70
2006,09,23,05,10,6.70
2006,09,23,05,11,6.70
2006,09,23,05,12,6.70
2006,09,23,05,13,6.70
2006,09,23,05,14,6.70
2006,09,23,05,15,6.70
2006,09,23,05,16,6.70
2006,09,23,05,17,6.70
2006,09,23,05,18,6.70
2006,09,23,05,19,6.70
2006,09,23,05,20,6.70
2006,09,23,05,21,6.70
2006,09,23,05,22,6.60
2006,09,23,05,23,6.60
2006,09,23,05,24,6.60
2006,09,23,05,25,6.60
2006,09,23,05,26,6.60
2006,09,23,05,27,6.60
2006,09,23,05,28,6.60
2006,09,23,05,29,6.60
2006,09,23,05,30,6.60
2006,09,23,05,31,6.60
2006,09,23,05,32,6.60
2006,09,23,05,33,6.50
2006,09,23,05,34,6.50
2006,09,23,05,35,6.50
2006,09,23,05,36,6.60
2006,09,23,05,37,6.60
2006,09,23,05,38,6.60
2006,09,23,05,39,6.60
2006,09,23,05,40,6.50
2006,09,23,05,41,6.50
2006,09,23,05,42,6.50
2006,09,23,05,43,6.50
2006,09,23,05,44,6.40
2006,09,23,05,45,6.40
2006,09,23,05,46,6.40
2006,09,23,05,47,6.30
2006,09,23,05,48,6.30
2006,09,23,05,49,6.30
2006,09,23,05,50,6.30
2006,09,23,05,51,6.30
2006,09,23,05,52,6.30
2006,09,23,05,53,6.30
2006,09,23,05,54,6.40
2006,09,23,05,55,6.40
2006,09,23,05,56,6.40
2006,09,23,05,57,6.40
2006,09,23,05,58,6.40
2006,09,23,05,59,6.40
2006,09,23,06,00,6.40
2006,09,23,06,01,6.40
2006,09,23,06,02,6.40
2006,09,23,06,03,6.40
2006,09,23,06,04,6.40
2006,09,23,06,05,6.30
2006,09,23,06,06,6.30
2006,09,23,06,07,6.30
2006,09,23,06,08,6.30
2006,09,23,06,09,6.30
2006,09,23,06,10,6.30
2006,09,23,06,11,6.30
2006,09,23,06,12,6.30
2006,09,23,06,13,6.30
2006,09,23,06,14,6.30
2006,09,23,06,15,6.30
2006,09,23,06,16,6.30
2006,09,23,06,17,6.20
2006,09,23,06,18,6.20
2006,09,23,06,19,6.20
2006,09,23,06,20,6.20
2006,09,23,06,21,6.20
2006,09,23,06,22,6.20
2006,09,23,06,23,6.20
2006,09,23,06,24,6.20
2006,09,23,06,25,6.20
2006,09,23,06,26,6.20
2006,09,23,06,27,6.20
2006,09,23,06,28,6.20
2006,09,23,06,29,6.20
2006,09,23,06,30,6.20
2006,09,23,06,31,6.20
2006,09,23,06,32,6.20
2006,09,23,06,33,6.20
2006,09,23,06,34,6.20
2006,09,23,06,35,6.20
2006,09,23,06,36,6.20
2006,09,23,06,37,6.20
2006,09,23,06,38,6.20
2006,09,23,06,39,6.10
2006,09,23,06,40,6.10
2006,09,23,06,41,6.10
2006,09,23,06,42,6.10
2006,09,23,06,43,6.20
2006,09,23,06,44,6.20
2006,09,23,06,45,6.10
2006,09,23,06,46,6.10
2006,09,23,06,47,6.10
2006,09,23,06,48,6.10
2006,09,23,06,49,6.10
2006,09,23,06,50,6.10
2006,09,23,06,51,6.10
2006,09,23,06,52,6.10
2006,09,23,06,53,6.10
2006,09,23,06,54,6.10
2006,09,23,06,55,6.10
2006,09,23,06,56,6.10
2006,09,23,06,57,6.10
2006,09,23,06,58,6.00
2006,09,23,06,59,6.00
2006,09,23,07,00,5.90
2006,09,23,07,01,5.90
2006,09,23,07,02,5.90
2006,09,23,07,03,5.90
2006,09,23,07,04,5.90
2006,09,23,07,05,5.90
2006,09,23,07,06,5.90
2006,09,23,07,07,5.90
2006,09,23,07,08,5.90
2006,09,23,07,09,5.90
2006,09,23,07,10,5.90
2006,09,23,07,11,5.90
2006,09,23,07,12,5.90
2006,09,23,07,13,5.90
2006,09,23,07,14,5.90
2006,09,23,07,15,5.90
2006,09,23,07,16,5.90
2006,09,23,07,17,5.90
2006,09,23,07,18,5.90
2006,09,23,07,19,5.90
2006,09,23,07,20,5.90
2006,09,23,07,21,5.90
2006,09,23,07,22,5.90
2006,09,23,07,23,5.90
2006,09,23,07,24,5.90
2006,09,23,07,25,5.90
2006,09,23,07,26,5.90
2006,09,23,07,27,5.90
2006,09,23,07,28,5.90
2006,09,23,07,29,5.90
2006,09,23,07,30,5.90
2006,09,23,07,31,5.90
2006,09,23,07,32,5.90
2006,09,23,07,33,6.00
2006,09,23,07,34,6.00
2006,09,23,07,35,6.10
2006,09,23,07,36,6.20
2006,09,23,07,37,6.20
2006,09,23,07,38,6.30
2006,09,23,07,39,6.30
2006,09,23,07,40,6.30
2006,09,23,07,41,6.40
2006,09,23,07,42,6.40
2006,09,23,07,43,6.40
2006,09,23,07,44,6.40
2006,09,23,07,45,6.40
2006,09,23,07,46,6.50
2006,09,23,07,47,6.50
2006,09,23,07,48,6.60
2006,09,23,07,49,6.60
2006,09,23,07,50,6.70
2006,09,23,07,51,6.70
2006,09,23,07,52,6.80
2006,09,23,07,53,6.80
2006,09,23,07,54,6.90
2006,09,23,07,55,6.90
2006,09,23,07,56,7.00
2006,09,23,07,57,7.00
2006,09,23,07,58,7.10
2006,09,23,07,59,7.20
2006,09,23,08,00,7.20
2006,09,23,08,01,7.30
2006,09,23,08,02,7.30
2006,09,23,08,03,7.40
2006,09,23,08,04,7.50
2006,09,23,08,05,7.60
2006,09,23,08,06,7.70
2006,09,23,08,07,7.70
2006,09,23,08,08,7.70
2006,09,23,08,09,7.80
2006,09,23,08,10,7.80
2006,09,23,08,11,7.90
2006,09,23,08,12,8.00
2006,09,23,08,13,8.00
2006,09,23,08,14,8.10
2006,09,23,08,15,8.20
2006,09,23,08,16,8.20
2006,09,23,08,17,8.30
2006,09,23,08,18,8.30
2006,09,23,08,19,8.40
2006,09,23,08,20,8.40
2006,09,23,08,21,8.50
2006,09,23,08,22,8.60
2006,09,23,08,23,8.60
2006,09,23,08,24,8.80
2006,09,23,08,25,8.90
2006,09,23,08,26,9.10
2006,09,23,08,27,9.30
2006,09,23,08,28,9.40
2006,09,23,08,29,9.60
2006,09,23,08,30,9.70
2006,09,23,08,31,9.90
2006,09,23,08,32,10.00
2006,09,23,08,33,10.00
2006,09,23,08,34,10.10
2006,09,23,08,35,10.10
2006,09,23,08,36,10.20
2006,09,23,08,37,10.20
2006,09,23,08,38,10.20
2006,09,23,08,39,10.30
2006,09,23,08,40,10.30
2006,09,23,08,41,10.40
2006,09,23,08,42,10.50
2006,09,23,08,43,10.60
2006,09,23,08,44,10.80
2006,09,23,08,45,11.00
2006,09,23,08,46,11.10
2006,09,23,08,47,11.30
2006,09,23,08,48,11.40
2006,09,23,08,49,11.60
2006,09,23,08,50,11.70
2006,09,23,08,51,11.70
2006,09,23,08,52,11.80
2006,09,23,08,53,11.80
2006,09,23,08,54,11.80
2006,09,23,08,55,11.90
2006,09,23,08,56,11.90
2006,09,23,08,57,12.00
2006,09,23,08,58,12.00
2006,09,23,08,59,12.10
2006,09,23,09,00,12.10
2006,09,23,09,01,12.10
2006,09,23,09,02,12.20
2006,09,23,09,03,12.30
2006,09,23,09,04,12.40
2006,09,23,09,05,12.60
2006,09,23,09,06,12.70
2006,09,23,09,07,12.90
2006,09,23,09,08,13.10
2006,09,23,09,09,13.20
2006,09,23,09,10,13.30
2006,09,23,09,11,13.50
2006,09,23,09,12,13.50
2006,09,23,09,13,13.60
2006,09,23,09,14,13.60
2006,09,23,09,15,13.60
2006,09,23,09,16,13.70
2006,09,23,09,17,13.70
2006,09,23,09,18,13.70
2006,09,23,09,19,13.70
2006,09,23,09,20,13.70
2006,09,23,09,21,13.80
2006,09,23,09,22,13.90
2006,09,23,09,23,14.00
2006,09,23,09,24,14.00
2006,09,23,09,25,14.00
2006,09,23,09,26,14.00
2006,09,23,09,27,14.10
2006,09,23,09,28,14.10
2006,09,23,09,29,14.10
2006,09,23,09,30,14.10
2006,09,23,09,31,14.10
2006,09,23,09,32,14.10
2006,09,23,09,33,14.10
2006,09,23,09,34,14.10
2006,09,23,09,35,14.10
2006,09,23,09,36,14.10
2006,09,23,09,37,14.20
2006,09,23,09,38,14.20
2006,09,23,09,39,14.20
2006,09,23,09,40,14.20
2006,09,23,09,41,14.30
2006,09,23,09,42,14.30
2006,09,23,09,43,14.40
2006,09,23,09,44,14.50
2006,09,23,09,45,14.60
2006,09,23,09,46,14.70
2006,09,23,09,47,14.70
2006,09,23,09,48,14.80
2006,09,23,09,49,14.90
2006,09,23,09,50,15.00
2006,09,23,09,51,15.00
2006,09,23,09,52,15.00
2006,09,23,09,53,15.00
2006,09,23,09,54,15.00
2006,09,23,09,55,15.00
2006,09,23,09,56,15.00
2006,09,23,09,57,15.00
2006,09,23,09,58,15.00
2006,09,23,09,59,15.00
2006,09,23,10,00,15.00
2006,09,23,10,01,15.00
2006,09,23,10,02,15.00
2006,09,23,10,03,15.10
2006,09,23,10,04,15.10
2006,09,23,10,05,15.10
2006,09,23,10,06,15.20
2006,09,23,10,07,15.30
2006,09,23,10,08,15.40
2006,09,23,10,09,15.40
2006,09,23,10,10,15.30
2006,09,23,10,11,15.30
2006,09,23,10,12,15.30
2006,09,23,10,13,15.40
2006,09,23,10,14,15.40
2006,09,23,10,15,15.40
2006,09,23,10,16,15.40
2006,09,23,10,17,15.30
2006,09,23,10,18,15.20
2006,09,23,10,19,15.20
2006,09,23,10,20,15.30
2006,09,23,10,21,15.30
2006,09,23,10,22,15.30
2006,09,23,10,23,15.30
2006,09,23,10,24,15.40
2006,09,23,10,25,15.50
2006,09,23,10,26,15.50
2006,09,23,10,27,15.40
2006,09,23,10,28,15.40
2006,09,23,10,29,15.40
2006,09,23,10,30,15.40
2006,09,23,10,31,15.40
2006,09,23,10,32,15.40
2006,09,23,10,33,15.40
2006,09,23,10,34,15.30
2006,09,23,10,35,15.30
2006,09,23,10,36,15.30
2006,09,23,10,37,15.40
2006,09,23,10,38,15.40
2006,09,23,10,39,15.40
2006,09,23,10,40,15.40
2006,09,23,10,41,15.40
2006,09,23,10,42,15.40
2006,09,23,10,43,15.40
2006,09,23,10,44,15.50
2006,09,23,10,45,15.60
2006,09,23,10,46,15.60
2006,09,23,10,47,15.70
2006,09,23,10,48,15.70
2006,09,23,10,49,15.60
2006,09,23,10,50,15.60
2006,09,23,10,51,15.50
2006,09,23,10,52,15.40
2006,09,23,10,53,15.40
2006,09,23,10,54,15.40
2006,09,23,10,55,15.40
2006,09,23,10,56,15.50
2006,09,23,10,57,15.60
2006,09,23,10,58,15.70
2006,09,23,10,59,15.70
2006,09,23,11,00,15.80
2006,09,23,11,01,15.80
2006,09,23,11,02,15.90
2006,09,23,11,03,16.00
2006,09,23,11,04,16.00
2006,09,23,11,05,16.10
2006,09,23,11,06,16.00
2006,09,23,11,07,15.90
2006,09,23,11,08,15.90
2006,09,23,11,09,15.90
2006,09,23,11,10,16.00
2006,09,23,11,11,16.00
2006,09,23,11,12,16.20
2006,09,23,11,13,16.10
2006,09,23,11,14,16.20
2006,09,23,11,15,16.20
2006,09,23,11,16,16.20
2006,09,23,11,17,16.10
2006,09,23,11,18,16.00
2006,09,23,11,19,16.00
2006,09,23,11,20,16.00
2006,09,23,11,21,16.10
2006,09,23,11,22,16.10
2006,09,23,11,23,16.10
2006,09,23,11,24,16.10
2006,09,23,11,25,16.20
2006,09,23,11,26,16.20
2006,09,23,11,27,16.20
2006,09,23,11,28,16.20
2006,09,23,11,29,16.20
2006,09,23,11,30,16.30
2006,09,23,11,31,16.30
2006,09,23,11,32,16.40
2006,09,23,11,33,16.50
2006,09,23,11,34,16.60
2006,09,23,11,35,16.60
2006,09,23,11,36,16.60
2006,09,23,11,37,16.60
2006,09,23,11,38,16.50
2006,09,23,11,39,16.60
2006,09,23,11,40,16.60
2006,09,23,11,41,16.60
2006,09,23,11,42,16.60
2006,09,23,11,43,16.70
2006,09,23,11,44,16.60
2006,09,23,11,45,16.60
2006,09,23,11,46,16.80
2006,09,23,11,47,16.90
2006,09,23,11,48,17.00
2006,09,23,11,49,17.20
2006,09,23,11,50,17.20
2006,09,23,11,51,17.30
2006,09,23,11,52,17.20
2006,09,23,11,53,17.20
2006,09,23,11,54,17.10
2006,09,23,11,55,17.10
2006,09,23,11,56,17.00
2006,09,23,11,57,17.00
2006,09,23,11,58,17.00
2006,09,23,11,59,17.00
2006,09,23,12,00,17.10
2006,09,23,12,01,17.20
2006,09,23,12,02,17.20
2006,09,23,12,03,17.10
2006,09,23,12,04,17.00
2006,09,23,12,05,17.00
2006,09,23,12,06,16.90
2006,09,23,12,07,16.90
2006,09,23,12,08,17.00
2006,09,23,12,09,17.00
2006,09,23,12,10,17.00
2006,09,23,12,11,17.00
2006,09,23,12,12,17.00
2006,09,23,12,13,17.10
2006,09,23,12,14,17.10
2006,09,23,12,15,17.10
2006,09,23,12,16,17.20
2006,09,23,12,17,17.20
2006,09,23,12,18,17.20
2006,09,23,12,19,17.30
2006,09,23,12,20,17.40
2006,09,23,12,21,17.50
2006,09,23,12,22,17.50
2006,09,23,12,23,17.60
2006,09,23,12,24,17.50
2006,09,23,12,25,17.50
2006,09,23,12,26,17.50
2006,09,23,12,27,17.50
2006,09,23,12,28,17.50
2006,09,23,12,29,17.60
2006,09,23,12,30,17.60
2006,09,23,12,31,17.60
2006,09,23,12,32,17.60
2006,09,23,12,33,17.60
2006,09,23,12,34,17.70
2006,09,23,12,35,17.70
2006,09,23,12,36,17.70
2006,09,23,12,37,17.70
2006,09,23,12,38,17.70
2006,09,23,12,39,17.70
2006,09,23,12,40,17.70
2006,09,23,12,41,17.70
2006,09,23,12,42,17.70
2006,09,23,12,43,17.70
2006,09,23,12,44,17.80
2006,09,23,12,45,17.90
2006,09,23,12,46,17.90
2006,09,23,12,47,17.90
2006,09,23,12,48,18.00
2006,09,23,12,49,18.00
2006,09,23,12,50,18.10
2006,09,23,12,51,18.10
2006,09,23,12,52,18.10
2006,09,23,12,53,18.10
2006,09,23,12,54,18.10
2006,09,23,12,55,18.20
2006,09,23,12,56,18.10
2006,09,23,12,57,18.00
2006,09,23,12,58,18.00
2006,09,23,12,59,18.00
2006,09,23,13,00,17.90
2006,09,23,13,01,18.00
2006,09,23,13,02,18.00
2006,09,23,13,03,18.10
2006,09,23,13,04,18.00
2006,09,23,13,05,17.90
2006,09,23,13,06,18.00
2006,09,23,13,07,18.00
2006,09,23,13,08,18.00
2006,09,23,13,09,18.00
2006,09,23,13,10,18.10
2006,09,23,13,11,18.10
2006,09,23,13,12,18.20
2006,09,23,13,13,18.30
2006,09,23,13,14,18.20
2006,09,23,13,15,18.20
2006,09,23,13,16,18.30
2006,09,23,13,17,18.20
2006,09,23,13,18,18.20
2006,09,23,13,19,18.20
2006,09,23,13,20,18.20
2006,09,23,13,21,18.30
2006,09,23,13,22,18.30
2006,09,23,13,23,18.20
2006,09,23,13,24,18.10
2006,09,23,13,25,18.00
2006,09,23,13,26,18.00
2006,09,23,13,27,18.10
2006,09,23,13,28,18.00
2006,09,23,13,29,18.00
2006,09,23,13,30,17.90
2006,09,23,13,31,17.90
2006,09,23,13,32,17.90
2006,09,23,13,33,17.90
2006,09,23,13,34,17.90
2006,09,23,13,35,17.90
2006,09,23,13,36,17.90
2006,09,23,13,37,17.90
2006,09,23,13,38,17.90
2006,09,23,13,39,17.80
2006,09,23,13,40,17.80
2006,09,23,13,41,17.80
2006,09,23,13,42,17.90
2006,09,23,13,43,18.00
2006,09,23,13,44,17.90
2006,09,23,13,45,17.90
2006,09,23,13,46,17.90
2006,09,23,13,47,17.90
2006,09,23,13,48,17.90
2006,09,23,13,49,17.80
2006,09,23,13,50,17.80
2006,09,23,13,51,17.80
2006,09,23,13,52,17.90
2006,09,23,13,53,18.00
2006,09,23,13,54,18.00
2006,09,23,13,55,18.00
2006,09,23,13,56,18.00
2006,09,23,13,57,18.00
2006,09,23,13,58,18.00
2006,09,23,13,59,17.90
2006,09,23,14,00,17.90
2006,09,23,14,01,18.00
2006,09,23,14,02,18.10
2006,09,23,14,03,18.20
2006,09,23,14,04,18.30
2006,09,23,14,05,18.20
2006,09,23,14,06,18.20
2006,09,23,14,07,18.30
2006,09,23,14,08,18.30
2006,09,23,14,09,18.30
2006,09,23,14,10,18.40
2006,09,23,14,11,18.40
2006,09,23,14,12,18.40
2006,09,23,14,13,18.30
2006,09,23,14,14,18.20
2006,09,23,14,15,18.30
2006,09,23,14,16,18.30
2006,09,23,14,17,18.40
2006,09,23,14,18,18.40
2006,09,23,14,19,18.40
2006,09,23,14,20,18.50
2006,09,23,14,21,18.60
2006,09,23,14,22,18.60
2006,09,23,14,23,18.60
2006,09,23,14,24,18.50
2006,09,23,14,25,18.40
2006,09,23,14,26,18.40
2006,09,23,14,27,18.30
2006,09,23,14,28,18.40
2006,09,23,14,29,18.40
2006,09,23,14,30,18.40
2006,09,23,14,31,18.40
2006,09,23,14,32,18.40
2006,09,23,14,33,18.40
2006,09,23,14,34,18.50
2006,09,23,14,35,18.60
2006,09,23,14,36,18.60
2006,09,23,14,37,18.60
2006,09,23,14,38,18.50
2006,09,23,14,39,18.40
2006,09,23,14,40,18.40
2006,09,23,14,41,18.40
2006,09,23,14,42,18.40
2006,09,23,14,43,18.50
2006,09,23,14,44,18.60
2006,09,23,14,45,18.60
2006,09,23,14,46,18.60
2006,09,23,14,47,18.70
2006,09,23,14,48,18.70
2006,09,23,14,49,18.80
2006,09,23,14,50,18.80
2006,09,23,14,51,18.80
2006,09,23,14,52,18.80
2006,09,23,14,53,18.80
2006,09,23,14,54,18.80
2006,09,23,14,55,18.80
2006,09,23,14,56,18.80
2006,09,23,14,57,18.80
2006,09,23,14,58,18.90
2006,09,23,14,59,19.00
2006,09,23,15,00,19.10
2006,09,23,15,01,19.00
2006,09,23,15,02,19.00
2006,09,23,15,03,18.90
2006,09,23,15,04,18.90
2006,09,23,15,05,18.80
2006,09,23,15,06,18.80
2006,09,23,15,07,18.80
2006,09,23,15,08,18.80
2006,09,23,15,09,18.80
2006,09,23,15,10,18.70
2006,09,23,15,11,18.80
2006,09,23,15,12,18.80
2006,09,23,15,13,18.90
2006,09,23,15,14,18.90
2006,09,23,15,15,19.00
2006,09,23,15,16,19.00
2006,09,23,15,17,19.00
2006,09,23,15,18,19.00
2006,09,23,15,19,19.00
2006,09,23,15,20,19.00
2006,09,23,15,21,19.00
2006,09,23,15,22,18.90
2006,09,23,15,23,18.90
2006,09,23,15,24,18.80
2006,09,23,15,25,18.80
2006,09,23,15,26,18.80
2006,09,23,15,27,18.80
2006,09,23,15,28,18.80
2006,09,23,15,29,18.80
2006,09,23,15,30,18.80
2006,09,23,15,31,18.80
2006,09,23,15,32,18.70
2006,09,23,15,33,18.80
2006,09,23,15,34,18.70
2006,09,23,15,35,18.70
2006,09,23,15,36,18.70
2006,09,23,15,37,18.70
2006,09,23,15,38,18.70
2006,09,23,15,39,18.70
2006,09,23,15,40,18.70
2006,09,23,15,41,18.70
2006,09,23,15,42,18.70
2006,09,23,15,43,18.70
2006,09,23,15,44,18.70
2006,09,23,15,45,18.60
2006,09,23,15,46,18.60
2006,09,23,15,47,18.60
2006,09,23,15,48,18.70
2006,09,23,15,49,18.70
2006,09,23,15,50,18.80
2006,09,23,15,51,18.80
2006,09,23,15,52,18.90
2006,09,23,15,53,18.90
2006,09,23,15,54,18.90
2006,09,23,15,55,18.90
2006,09,23,15,56,18.90
2006,09,23,15,57,18.90
2006,09,23,15,58,18.90
2006,09,23,15,59,18.90
2006,09,23,16,00,18.90
2006,09,23,16,01,19.00
2006,09,23,16,02,19.00
2006,09,23,16,03,18.90
2006,09,23,16,04,18.90
2006,09,23,16,05,18.90
2006,09,23,16,06,19.00
2006,09,23,16,07,19.10
2006,09,23,16,08,19.10
2006,09,23,16,09,19.20
2006,09,23,16,10,19.20
2006,09,23,16,11,19.20
2006,09,23,16,12,19.20
2006,09,23,16,13,19.20
2006,09,23,16,14,19.20
2006,09,23,16,15,19.20
2006,09,23,16,16,19.20
2006,09,23,16,17,19.20
2006,09,23,16,18,19.30
2006,09,23,16,19,19.30
2006,09,23,16,20,19.40
2006,09,23,16,21,19.40
2006,09,23,16,22,19.40
2006,09,23,16,23,19.40
2006,09,23,16,24,19.40
2006,09,23,16,25,19.40
2006,09,23,16,26,19.40
2006,09,23,16,27,19.40
2006,09,23,16,28,19.50
2006,09,23,16,29,19.50
2006,09,23,16,30,19.60
2006,09,23,16,31,19.70
2006,09,23,16,32,19.60
2006,09,23,16,33,19.60
2006,09,23,16,34,19.60
2006,09,23,16,35,19.50
2006,09,23,16,36,19.50
2006,09,23,16,37,19.60
2006,09,23,16,38,19.70
2006,09,23,16,39,19.80
2006,09,23,16,40,19.90
2006,09,23,16,41,19.90
2006,09,23,16,42,19.90
2006,09,23,16,43,19.90
2006,09,23,16,44,19.90
2006,09,23,16,45,19.90
2006,09,23,16,46,19.90
2006,09,23,16,47,19.90
2006,09,23,16,48,19.90
2006,09,23,16,49,19.90
2006,09,23,16,50,19.90
2006,09,23,16,51,19.80
2006,09,23,16,52,19.90
2006,09,23,16,53,19.90
2006,09,23,16,54,19.80
2006,09,23,16,55,19.80
2006,09,23,16,56,19.70
2006,09,23,16,57,19.70
2006,09,23,16,58,19.60
2006,09,23,16,59,19.60
2006,09,23,17,00,19.60
2006,09,23,17,01,19.50
2006,09,23,17,02,19.50
2006,09,23,17,03,19.50
2006,09,23,17,04,19.60
2006,09,23,17,05,19.60
2006,09,23,17,06,19.60
2006,09,23,17,07,19.60
2006,09,23,17,08,19.60
2006,09,23,17,09,19.50
2006,09,23,17,10,19.50
2006,09,23,17,11,19.50
2006,09,23,17,12,19.50
2006,09,23,17,13,19.50
2006,09,23,17,14,19.40
2006,09,23,17,15,19.30
2006,09,23,17,16,19.30
2006,09,23,17,17,19.30
2006,09,23,17,18,19.20
2006,09,23,17,19,19.20
2006,09,23,17,20,19.20
2006,09,23,17,21,19.20
2006,09,23,17,22,19.20
2006,09,23,17,23,19.20
2006,09,23,17,24,19.20
2006,09,23,17,25,19.20
2006,09,23,17,26,19.20
2006,09,23,17,27,19.20
2006,09,23,17,28,19.20
2006,09,23,17,29,19.10
2006,09,23,17,30,19.10
2006,09,23,17,31,19.10
2006,09,23,17,32,19.10
2006,09,23,17,33,19.10
2006,09,23,17,34,19.00
2006,09,23,17,35,19.00
2006,09,23,17,36,19.00
2006,09,23,17,37,19.00
2006,09,23,17,38,19.10
2006,09,23,17,39,19.10
2006,09,23,17,40,19.10
2006,09,23,17,41,19.10